Weather History for HETB - January, 2013

Change the Weather History Date:

Wednesday, January 9, 2013

  Actual Average Record
Temperature  
Mean Temperature 42 °F -  
Max Temperature 48 °F - - ()
Min Temperature 37 °F - - ()
Degree Days  
Heating Degree Days 22    
Moisture  
Dew Point 35 °F    
Average Humidity 79    
Maximum Humidity 100    
Minimum Humidity 57    
Precipitation  
Precipitation 0.00 in - - ()
Sea Level Pressure  
Sea Level Pressure 30.00 in    
Wind  
Wind Speed 13 mph ()    
Max Wind Speed 23 mph    
Max Gust Speed 16 mph    
Visibility 6.2 miles    
Events      
T = Trace of Precipitation, MM = Missing Value Source: Averaged Metar Reports

Daily Weather History Graph

Daily Weather History Graph

Search for Another Location

Airport or City:

Trip Planner

Search our weather history database for the weather conditions in past years. The results will help you decide how hot, cold, wet, or windy it might be!

Date:

Astronomy

Jan. 09, 2013 Rise Set
Actual Time 6:36 AM EET 4:59 PM EET
Civil Twilight 6:11 AM EET 5:25 PM EET
Nautical Twilight 5:41 AM EET 5:54 PM EET
Astronomical Twilight 5:12 AM EET 6:23 PM EET
Moon 3:53 AM EET (1/9) 2:39 PM EET (1/9)
Length of Visible Light 11h 14m
Length of Day
10h 22m
Waning Crescent, 8% of the Moon is Illuminated
Jan 9
Waning Crescent
Jan 11
New
Jan 19
First Quarter
Jan 27
Full
Feb 3
Last Quarter

Hourly Weather History & Observations

Time (EET) Temp. Windchill Dew Point Humidity Pressure Visibility Wind Dir Wind Speed Gust Speed Precip Events Conditions
12:00 AM 48.2 °F - 37.4 °F 66% 29.89 in - SSW 9.2 mph - N/A   Clear
2:00 AM 46.4 °F - 39.2 °F 76% 29.89 in - Variable 2.3 mph 16.1 mph N/A   Clear
3:00 AM 44.6 °F 36.1 °F 41.0 °F 87% 29.89 in 6.2 mi WSW 21.9 mph - N/A   Mostly Cloudy
5:00 AM 42.8 °F 35.8 °F 41.0 °F 93% 29.92 in 6.2 mi WNW 13.8 mph - N/A   Mostly Cloudy
6:00 AM 41.0 °F 33.9 °F 41.0 °F 100% 29.92 in 6.2 mi West 12.7 mph - N/A   Mostly Cloudy
7:00 AM 39.2 °F 30.2 °F 39.2 °F 100% 29.95 in 6.2 mi West 17.3 mph - N/A   Mostly Cloudy
8:00 AM 41.0 °F 34.3 °F 41.0 °F 100% 29.98 in 6.2 mi West 11.5 mph - N/A   Mostly Cloudy
9:00 AM 39.2 °F 28.7 °F 37.4 °F 93% 30.01 in 6.2 mi West 23.0 mph - N/A   Mostly Cloudy
10:00 AM 41.0 °F 31.6 °F 35.6 °F 81% 30.01 in 6.2 mi West 20.7 mph - N/A   Mostly Cloudy
12:00 PM 44.6 °F 36.4 °F 30.2 °F 57% 29.98 in 6.2 mi West 20.7 mph - N/A   Scattered Clouds
1:00 PM 42.8 °F 35.1 °F 33.8 °F 70% 30.01 in 6.2 mi West 16.1 mph - N/A   Scattered Clouds
2:00 PM 44.6 °F 37.8 °F 30.2 °F 57% 30.01 in 6.2 mi West 15.0 mph - N/A   Mostly Cloudy
3:00 PM 41.0 °F 31.6 °F 35.6 °F 81% 30.01 in 6.2 mi West 20.7 mph - N/A   Mostly Cloudy
4:00 PM 41.0 °F 32.5 °F 32.0 °F 70% 30.01 in 6.2 mi West 17.3 mph - N/A   Scattered Clouds
5:00 PM 39.2 °F 32.0 °F 32.0 °F 75% 30.04 in 6.2 mi West 11.5 mph - N/A   Scattered Clouds
6:00 PM 39.2 °F 31.6 °F 30.2 °F 70% 30.04 in 6.2 mi WSW 12.7 mph - N/A   Scattered Clouds
7:00 PM 39.2 °F 32.0 °F 32.0 °F 75% 30.06 in 6.2 mi WSW 11.5 mph - N/A   Scattered Clouds
8:00 PM 39.2 °F 30.5 °F 32.0 °F 75% 30.06 in 6.2 mi West 16.1 mph - N/A   Scattered Clouds
9:00 PM 39.2 °F 30.2 °F 32.0 °F 75% 30.06 in 6.2 mi West 17.3 mph - N/A   Scattered Clouds
10:00 PM 37.4 °F 27.8 °F 32.0 °F 81% 30.09 in 6.2 mi West 17.3 mph - N/A   Scattered Clouds
11:00 PM 37.4 °F 27.8 °F 32.0 °F 81% 30.09 in 6.2 mi West 17.3 mph - N/A   Scattered Clouds